Total_Precipitation_Accumulation
1.55 1.87 2.31 1.74 1.63 2.25 3.65 5.14 4.49 2.29 2.90 6.56 7.16 4.40 1.75 0.53 0.11 0.09 0.16 0.14 0.06 0.04 0.02 0.02 0.03 0.05 0.12 0.05 0.07 0.17 0.22 0.28 0.12 0.02 0.00 0.02 0.09 0.17 0.49 1.14 0.98 0.84 0.76 1.00
1.61 1.54 1.99 2.70 2.31 3.06 4.24 5.59 3.71 3.00 4.24 5.24 3.99 2.42 1.01 0.33 0.14 0.19 0.30 0.17 0.05 0.03 0.03 0.07 0.05 0.08 0.11 0.07 0.10 0.23 0.33 0.63 0.54 0.28 0.22 0.13 0.12 0.18 0.35 0.64 0.97 0.88 1.08 0.77
1.87 1.84 1.82 2.26 3.18 3.63 4.83 5.89 4.87 5.14 6.27 3.37 1.95 1.85 1.16 0.68 0.29 0.28 0.35 0.25 0.12 0.11 0.15 0.09 0.07 0.13 0.14 0.15 0.21 0.36 0.50 0.49 0.53 0.47 0.38 0.44 0.35 0.22 0.33 0.97 1.52 0.95 0.59 0.36
2.00 2.10 2.20 2.18 2.74 4.07 6.34 7.79 4.44 2.67 4.12 3.36 1.63 1.09 0.90 0.59 0.65 0.57 0.36 0.78 0.51 0.34 0.31 0.22 0.18 0.25 0.22 0.24 0.33 0.53 0.87 0.85 0.60 0.39 0.29 0.34 0.42 0.32 0.26 0.49 0.61 0.98 0.41 0.42
2.18 2.39 2.28 2.28 2.73 4.69 7.70 7.36 3.09 1.61 0.94 1.19 1.45 1.48 1.16 0.63 0.47 0.55 0.61 0.64 0.26 0.25 0.37 0.27 0.33 0.41 0.45 0.42 0.40 0.61 0.95 0.98 0.67 0.42 0.40 0.33 0.25 0.11 0.25 0.36 0.39 0.53 0.42 0.51
1.75 2.33 2.34 2.29 2.92 5.59 9.17 6.01 2.09 1.70 1.56 0.83 1.55 1.44 0.82 0.77 0.61 0.52 0.35 0.39 0.38 0.36 0.36 0.35 0.34 0.36 0.35 0.43 0.51 0.73 0.83 0.98 0.89 0.57 0.32 0.61 0.51 0.08 0.12 0.20 0.36 0.59 0.73 0.51
1.31 1.75 2.20 2.20 2.85 4.50 5.62 3.93 2.23 2.65 2.03 1.28 0.89 0.77 0.50 0.36 0.52 0.60 0.44 0.49 0.77 0.39 0.21 0.35 0.48 0.55 0.43 0.40 0.36 0.48 0.85 0.87 1.29 0.98 0.60 1.25 0.30 0.17 0.27 0.28 0.45 0.54 0.59 0.46
1.22 1.30 1.81 1.89 2.44 3.36 3.43 3.14 2.46 3.01 2.34 0.82 0.69 0.56 0.71 0.64 0.67 0.73 0.51 0.38 0.45 0.47 0.69 1.27 1.35 1.13 1.20 0.80 0.49 0.38 0.43 0.80 1.50 1.47 1.16 0.50 0.16 0.28 0.53 0.62 0.62 0.44 0.39 0.33
1.41 1.24 1.53 1.72 2.04 3.00 2.82 2.58 2.45 3.36 3.03 1.35 0.43 0.53 0.59 0.96 1.04 1.34 0.95 0.76 0.55 0.74 1.47 1.95 1.65 1.15 0.82 0.63 0.65 0.45 0.63 0.82 1.48 1.39 1.43 0.91 0.75 0.26 0.21 0.62 0.73 0.31 0.30 0.31
1.57 1.36 1.41 1.60 1.66 2.19 2.59 2.27 2.03 3.72 4.11 1.42 0.72 0.77 0.88 0.76 0.94 1.35 1.24 1.30 1.19 1.17 1.70 2.06 1.70 0.92 0.37 0.64 0.86 0.67 0.77 1.13 1.44 1.18 1.27 0.80 0.47 0.26 0.36 0.77 0.76 0.25 0.33 0.37
1.50 1.36 1.24 1.46 1.47 1.66 2.36 1.99 1.65 2.98 3.47 1.63 1.13 0.70 0.80 0.79 0.76 1.07 1.32 1.90 1.95 1.80 1.62 1.29 1.18 1.10 0.53 0.73 1.14 0.67 0.83 0.95 1.10 1.40 1.94 1.19 0.12 0.30 0.65 0.83 0.46 0.31 0.38 0.40
1.55 1.34 1.27 1.55 1.74 1.75 2.19 2.21 1.55 2.15 3.32 2.24 1.23 0.77 0.58 0.52 0.42 0.54 0.82 1.22 1.33 1.55 1.35 0.89 0.75 0.72 0.61 0.68 0.92 0.88 1.45 1.20 1.29 1.01 1.00 0.57 0.30 0.43 0.49 0.41 0.42 0.44 0.60 0.64
1.49 1.31 1.29 1.84 2.11 1.93 2.18 2.04 1.61 3.30 3.82 2.62 1.65 1.28 0.60 0.40 0.52 0.40 0.99 0.70 0.85 1.31 1.17 1.45 1.13 0.91 0.50 0.49 0.73 0.70 0.59 0.56 0.99 0.96 0.67 0.39 0.53 0.44 0.25 0.25 0.28 0.30 0.31 0.74
1.56 1.80 1.64 1.93 2.19 2.07 2.60 2.52 2.16 3.52 2.91 2.68 1.90 1.25 0.77 0.51 0.69 0.43 0.43 0.39 0.41 0.77 1.11 1.75 1.53 1.01 0.76 0.67 0.68 0.61 0.51 0.75 0.71 1.03 0.97 0.70 0.66 0.94 0.62 0.44 0.32 0.32 0.33 0.25
1.53 1.88 1.96 2.28 2.54 2.52 3.45 3.17 2.84 2.62 2.36 2.32 1.87 0.96 0.82 0.59 0.86 0.57 0.61 0.60 0.65 1.09 1.26 1.35 0.99 0.66 0.95 0.89 0.85 0.52 0.39 0.97 0.96 0.91 1.14 1.28 1.36 0.89 0.72 0.81 0.61 0.44 0.22 0.18
1.30 1.75 2.10 2.57 2.80 3.77 5.89 7.20 4.27 2.42 2.21 2.72 2.17 1.22 0.84 0.74 1.18 1.09 0.68 1.00 1.05 1.40 1.74 0.98 0.49 0.47 1.13 1.09 1.10 0.67 0.46 0.47 0.65 0.99 1.04 1.08 0.97 0.61 0.38 0.29 0.34 0.34 0.24 0.22
1.20 1.39 1.70 2.08 2.32 2.97 4.06 3.29 2.07 1.75 2.59 3.85 2.56 1.66 1.10 1.11 1.63 1.93 1.65 1.49 1.81 2.04 2.03 1.21 0.61 0.53 0.92 1.11 0.93 0.63 0.42 0.52 0.52 0.69 0.61 0.41 0.33 0.27 0.16 0.07 0.05 0.04 0.04 0.07
1.19 1.48 1.65 2.00 2.46 3.03 2.61 1.78 1.85 1.91 3.02 2.60 1.92 1.66 1.86 1.53 2.19 2.50 2.03 2.34 2.50 2.26 1.92 1.20 0.77 0.84 1.28 1.27 0.66 0.37 0.27 0.41 0.37 0.38 0.29 0.20 0.13 0.08 0.05 0.04 0.12 0.21 0.18 0.18
1.78 2.14 2.81 4.00 3.43 3.04 1.96 1.66 2.33 2.35 2.15 1.67 0.78 1.14 2.54 2.29 2.18 2.10 1.75 1.97 2.30 1.70 1.15 0.85 1.10 1.41 1.42 0.80 0.35 0.31 0.25 0.30 0.32 0.22 0.12 0.08 0.09 0.06 0.05 0.02 0.03 0.25 0.36 0.43
2.29 2.72 3.52 3.73 2.35 1.96 2.18 3.18 3.47 3.44 2.03 1.22 0.75 0.63 1.64 2.32 2.31 1.88 1.75 1.44 1.24 1.27 0.91 0.97 1.39 1.03 0.50 0.21 0.21 0.22 0.17 0.20 0.21 0.21 0.24 0.22 0.31 0.21 0.09 0.05 0.08 0.18 0.16 0.31
1.80 2.16 2.87 2.44 2.36 2.38 2.60 2.62 1.96 1.63 1.12 0.45 0.47 0.57 1.27 1.47 2.18 1.72 1.36 1.55 1.05 0.83 0.96 0.91 1.17 0.64 0.36 0.13 0.09 0.11 0.16 0.19 0.23 0.26 0.26 0.27 0.44 0.18 0.13 0.23 0.29 0.23 0.16 0.22
1.07 1.71 2.08 2.54 2.45 2.08 1.63 1.26 0.90 0.68 0.52 0.34 0.44 0.74 1.43 1.36 1.73 1.75 1.49 1.41 1.28 1.24 0.92 0.73 0.88 0.67 0.29 0.20 0.16 0.13 0.16 0.22 0.28 0.26 0.24 0.26 0.28 0.26 0.24 0.25 0.23 0.23 0.26 0.31
1.42 1.22 1.32 1.48 1.19 1.27 0.80 0.55 0.51 0.59 0.44 0.41 0.55 1.07 1.64 1.38 1.80 1.74 1.26 1.61 1.44 1.23 1.71 1.13 0.64 0.41 0.32 0.19 0.21 0.24 0.25 0.24 0.29 0.33 0.33 0.29 0.29 0.28 0.30 0.32 0.39 0.41 0.54 0.78
1.25 1.08 0.94 1.15 0.89 0.65 0.62 0.69 0.90 0.56 0.69 0.73 1.09 1.26 1.54 1.57 1.60 1.31 1.00 1.20 1.13 1.10 0.97 0.84 0.74 0.49 0.35 0.31 0.30 0.27 0.38 0.42 0.44 0.50 0.49 0.54 0.59 0.75 0.91 0.97 1.05 0.86 0.96 1.20
1.20 1.04 1.10 0.71 1.00 0.85 0.81 0.68 0.53 0.44 0.73 1.27 1.48 1.50 1.35 1.14 1.58 0.94 0.73 0.82 0.89 0.79 1.01 1.00 0.75 0.58 0.54 0.58 0.63 0.65 0.75 0.81 0.89 0.97 0.91 1.01 0.97 0.83 1.07 1.20 1.08 0.86 0.85 0.85
1.20 1.17 1.02 0.81 0.81 0.87 0.74 0.60 0.50 0.56 1.28 1.45 1.45 1.38 1.09 0.83 0.52 0.53 0.50 0.59 0.97 0.87 0.76 0.74 0.66 0.73 0.87 0.92 0.96 1.04 1.05 1.00 0.99 0.98 0.87 0.87 0.82 0.74 0.83 0.86 0.78 0.73 0.55 0.54
0.85 1.09 1.20 1.08 0.95 1.07 1.06 0.87 0.72 0.73 1.24 1.35 0.94 0.83 0.80 0.81 0.42 0.34 0.40 0.73 1.01 0.98 1.01 0.90 0.86 0.93 1.06 1.09 1.01 0.99 0.83 0.73 0.70 0.65 0.62 0.65 0.63 0.44 0.33 0.39 0.51 0.40 0.35 0.31